Weather in Sadovaya

Russia / Smolensk Oblast     54°56′27″N   33°16′33″E
temp.,
°C
wind,
m/s
gust,
m/s
humid.,
%
clouds,
%
prec.,
mm/h
press.,
hPa
HPBL,
m
8 may, sat
sat800:00+7sse51194100 1.8 1008775
03:00+7s51095100 3.8 1006757
06:00+6ssw2698100 0.0 1005211
09:00+8wnw2488100 0.1 1005416
12:00+9nw5684100 0.1 1005840
15:00+9nnw7869100 0.1 10051175
18:00+8nw71075100 0.1 10071057
21:00+5nw71274100 0.1 1009891
9 may, sun
sun900:00+4nw61277100 0.0 1010693
03:00+2wnw51185100 0.0 1013462
06:00+2nw6118884 0.0 1016646
09:00+6nw6106511 0.0 10181290
12:00+9nw6846100 0.0 10192302
15:00+11nw5738100 0.0 10202526
18:00+11nw46485 0.0 10221611
21:00+6wnw22625 0.0 102511
10 may, mon
mon1000:00+4w22735 0.0 102717
03:00+3sw12735 0.0 102810
06:00+3ssw23735 0.0 102954
09:00+10ssw355463 0.0 1030456
12:00+14ssw45485 0.0 10291380
15:00+15sw33475 0.0 10291545
18:00+15sw22565 0.0 10281275
21:00+9s22765 0.0 102911
11 may, tue
tue1100:00+8s1175100 0.0 103010
03:00+7se2280100 0.0 103010
06:00+7se238386 0.0 103143
09:00+12ese2363100 0.0 1030358
12:00+16ese3551100 0.0 10291083
15:00+18e3550100 0.0 10281330
18:00+17e3661100 0.0 1027489
21:00+11ese34762 0.0 102758
12 may, wed
wed1200:00+8ese33830 0.0 102738
03:00+8e34850 0.0 102759
06:00+8ene38840 0.0 1026160
09:00+14e69630 0.0 1025616
12:00+16ese61070100 0.0 10241017
15:00+16ese69689 0.1 10231268
18:00+14ese41082100 0.0 1023649
21:00+12e41190100 0.0 1023522